| time (UTC) | temp F | wind direction | speed MPH | gust MPH | rain 1hr in | rain 24hr in | rain mn in | humidity % | barometer mb |
| 20260505183939 | 76 | 239 | 5.0 | 8.0 | 0.00 | 0.00 | 0.00 | 48 | 1005.0 |
| 20260505183437 | 76 | 236 | 3.0 | 5.0 | 0.00 | 0.00 | 0.00 | 47 | 1004.9 |
| 20260505182933 | 76 | 206 | 5.0 | 6.0 | 0.00 | 0.00 | 0.00 | 47 | 1005.1 |
| 20260505182431 | 79 | 223 | 4.0 | 7.0 | 0.00 | 0.00 | 0.00 | 44 | 1005.0 |
| 20260505181926 | 81 | 226 | 4.0 | 9.0 | 0.00 | 0.00 | 0.00 | 41 | 1005.3 |
| 20260505181424 | 83 | 233 | 5.0 | 8.0 | 0.00 | 0.00 | 0.00 | 34 | 1005.3 |
| 20260505180921 | 83 | 242 | 3.0 | 6.0 | 0.00 | 0.00 | 0.00 | 35 | 1005.0 |
| 20260505180417 | 83 | 242 | 4.0 | 7.0 | 0.00 | 0.00 | 0.00 | 35 | 1005.0 |
| 20260505175914 | 83 | 240 | 3.0 | 5.0 | 0.00 | 0.00 | 0.00 | 35 | 1005.3 |
| 20260505175410 | 84 | 280 | 3.0 | 5.0 | 0.00 | 0.00 | 0.00 | 34 | 1005.4 |
| 20260505174907 | 83 | 231 | 6.0 | 9.0 | 0.00 | 0.00 | 0.00 | 36 | 1005.5 |
| 20260505174404 | 83 | 259 | 6.0 | 7.0 | 0.00 | 0.00 | 0.00 | 35 | 1005.3 |
| 20260505173900 | 81 | 329 | 3.0 | 6.0 | 0.00 | 0.00 | 0.00 | 37 | 1005.4 |
| 20260505173357 | 81 | 254 | 5.0 | 8.0 | 0.00 | 0.00 | 0.00 | 37 | 1005.4 |
| 20260505172854 | 82 | 255 | 8.0 | 10.0 | 0.00 | 0.00 | 0.00 | 36 | 1005.7 |
| 20260505172352 | 82 | 266 | 3.0 | 7.0 | 0.00 | 0.00 | 0.00 | 35 | 1005.6 |
| 20260505171851 | 83 | 300 | 3.0 | 3.0 | 0.00 | 0.00 | 0.00 | 35 | 1005.7 |
| 20260505171348 | 82 | 317 | 2.0 | 3.0 | 0.00 | 0.00 | 0.00 | 36 | 1005.7 |
| 20260505170844 | 81 | 326 | 3.0 | 6.0 | 0.00 | 0.00 | 0.00 | 37 | 1005.9 |
| 20260505170342 | 82 | 229 | 4.0 | 9.0 | 0.00 | 0.00 | 0.00 | 37 | 1006.0 |
| 20260505165837 | 82 | 241 | 4.0 | 6.0 | 0.00 | 0.00 | 0.00 | 37 | 1006.1 |
| 20260505165333 | 81 | 210 | 4.0 | 6.0 | 0.00 | 0.00 | 0.00 | 38 | 1006.3 |
| 20260505164829 | 80 | 317 | 3.0 | 5.0 | 0.00 | 0.00 | 0.00 | 39 | 1006.3 |
| 20260505164326 | 80 | 281 | 2.0 | 6.0 | 0.00 | 0.00 | 0.00 | 40 | 1006.4 |
| 20260505163824 | 80 | 252 | 7.0 | 9.0 | 0.00 | 0.00 | 0.00 | 39 | 1006.5 |
| 20260505163322 | 80 | 267 | 3.0 | 3.0 | 0.00 | 0.00 | 0.00 | 39 | 1006.6 |
| 20260505162820 | 80 | 247 | 3.0 | 6.0 | 0.00 | 0.00 | 0.00 | 39 | 1006.8 |
| 20260505162316 | 80 | 292 | 2.0 | 3.0 | 0.00 | 0.00 | 0.00 | 39 | 1006.8 |
| 20260505161813 | 78 | 260 | 1.0 | 5.0 | 0.00 | 0.00 | 0.00 | 40 | 1007.0 |
| 20260505161311 | 79 | 231 | 5.0 | 6.0 | 0.00 | 0.00 | 0.00 | 40 | 1007.1 |
| 20260505160808 | 77 | 276 | 2.0 | 2.0 | 0.00 | 0.00 | 0.00 | 41 | 1007.3 |
| 20260505160306 | 78 | 353 | 3.0 | 7.0 | 0.00 | 0.00 | 0.00 | 41 | 1007.4 |
| 20260505153245 | 76 | 247 | 5.0 | 6.0 | 0.00 | 0.00 | 0.00 | 43 | 1007.6 |
| 20260505152742 | 76 | 213 | 5.0 | 6.0 | 0.00 | 0.00 | 0.00 | 43 | 1007.8 |
| 20260505152238 | 75 | 261 | 2.0 | 5.0 | 0.00 | 0.00 | 0.00 | 45 | 1007.9 |
| 20260505151732 | 75 | 260 | 2.0 | 7.0 | 0.00 | 0.00 | 0.00 | 46 | 1008.1 |
| 20260505151230 | 73 | 314 | 2.0 | 7.0 | 0.00 | 0.00 | 0.00 | 47 | 1008.1 |
| 20260505150726 | 74 | 252 | 3.0 | 3.0 | 0.00 | 0.00 | 0.00 | 45 | 1008.4 |
| 20260505150223 | 72 | 247 | 2.0 | 5.0 | 0.00 | 0.00 | 0.00 | 46 | 1008.4 |
| 20260505140651 | 68 | 259 | 2.0 | 3.0 | 0.00 | 0.00 | 0.00 | 51 | 1007.9 |
| 20260505140148 | 68 | 253 | 1.0 | 2.0 | 0.00 | 0.00 | 0.00 | 51 | 1007.8 |
| 20260505130112 | 65 | 223 | 3.0 | 3.0 | 0.00 | 0.00 | 0.00 | 52 | 1008.7 |
| 20260505124601 | 66 | 286 | 3.0 | 3.0 | 0.00 | 0.00 | 0.00 | 51 | 1008.6 |
| 20260505124058 | 65 | 265 | 2.0 | 2.0 | 0.00 | 0.00 | 0.00 | 53 | 1008.7 |
| 20260505123554 | 65 | 260 | 2.0 | 5.0 | 0.00 | 0.00 | 0.00 | 52 | 1008.6 |
| 20260505123050 | 65 | 273 | 2.0 | 3.0 | 0.00 | 0.00 | 0.00 | 53 | 1008.2 |
| 20260505122547 | 63 | 272 | 0.0 | 3.0 | 0.00 | 0.00 | 0.00 | 58 | 1008.1 |
| 20260505122044 | 63 | 221 | 2.0 | 2.0 | 0.00 | 0.00 | 0.00 | 58 | 1008.2 |
| 20260505121541 | 62 | 270 | 1.0 | 2.0 | 0.00 | 0.00 | 0.00 | 59 | 1008.1 |
| 20260505121038 | 61 | 255 | 1.0 | 2.0 | 0.00 | 0.00 | 0.00 | 59 | 1008.4 |
| 20260505120534 | 60 | 261 | 1.0 | 2.0 | 0.00 | 0.00 | 0.00 | 61 | 1008.4 |
| 20260505120030 | 59 | 242 | 1.0 | 3.0 | 0.00 | 0.00 | 0.00 | 62 | 1008.2 |
| 20260505115524 | 59 | 255 | 2.0 | 2.0 | 0.00 | 0.00 | 0.00 | 63 | 1008.3 |
| 20260505115022 | 58 | 257 | 1.0 | 5.0 | 0.00 | 0.00 | 0.00 | 63 | 1008.5 |
| 20260505114519 | 57 | 225 | 2.0 | 2.0 | 0.00 | 0.00 | 0.00 | 65 | 1008.7 |
| 20260505114015 | 57 | 272 | 0.0 | 1.0 | 0.00 | 0.00 | 0.00 | 67 | 1008.8 |
| 20260505113512 | 56 | 263 | 1.0 | 1.0 | 0.00 | 0.00 | 0.00 | 66 | 1008.7 |
| 20260505113009 | 56 | 251 | 1.0 | 2.0 | 0.00 | 0.00 | 0.00 | 69 | 1008.6 |
| 20260505112505 | 55 | 245 | 1.0 | 1.0 | 0.00 | 0.00 | 0.00 | 70 | 1008.5 |
| 20260505112002 | 54 | 258 | 1.0 | 2.0 | 0.00 | 0.00 | 0.00 | 72 | 1008.7 |
| 20260505111456 | 53 | 242 | 2.0 | 2.0 | 0.00 | 0.00 | 0.00 | 73 | 1008.6 |
| 20260505110953 | 51 | 263 | 0.0 | 1.0 | 0.00 | 0.00 | 0.00 | 80 | 1008.7 |
| 20260505110449 | 49 | 275 | 0.0 | 1.0 | 0.00 | 0.00 | 0.00 | 83 | 1008.6 |
| 20260505101921 | 46 | 267 | 0.0 | 0.0 | 0.00 | 0.00 | 0.00 | 86 | 1008.7 |
| 20260505101415 | 46 | 264 | 0.0 | 0.0 | 0.00 | 0.00 | 0.00 | 86 | 1008.7 |
| 20260505100911 | 46 | 258 | 1.0 | 1.0 | 0.00 | 0.00 | 0.00 | 86 | 1008.6 |
| 20260505100408 | 46 | 259 | 0.0 | 0.0 | 0.00 | 0.00 | 0.00 | 85 | 1008.7 |
| 20260505095903 | 46 | 265 | 0.0 | 0.0 | 0.00 | 0.00 | 0.00 | 85 | 1008.6 |
| 20260505095401 | 46 | 266 | 0.0 | 0.0 | 0.00 | 0.00 | 0.00 | 85 | 1008.8 |
| 20260505094857 | 46 | 269 | 0.0 | 0.0 | 0.00 | 0.00 | 0.00 | 85 | 1008.6 |
| 20260505094354 | 46 | 272 | 0.0 | 0.0 | 0.00 | 0.00 | 0.00 | 85 | 1008.8 |
| 20260505093850 | 46 | 268 | 0.0 | 0.0 | 0.00 | 0.00 | 0.00 | 85 | 1008.6 |
| 20260505093347 | 46 | 260 | 0.0 | 0.0 | 0.00 | 0.00 | 0.00 | 84 | 1008.6 |
| 20260505092845 | 47 | 270 | 0.0 | 0.0 | 0.00 | 0.00 | 0.00 | 84 | 1008.7 |
| 20260505092343 | 47 | 268 | 0.0 | 0.0 | 0.00 | 0.00 | 0.00 | 82 | 1008.6 |
| 20260505091839 | 47 | 272 | 0.0 | 0.0 | 0.00 | 0.00 | 0.00 | 82 | 1008.7 |
| 20260505091337 | 48 | 259 | 0.0 | 1.0 | 0.00 | 0.00 | 0.00 | 81 | 1008.6 |
| 20260505090835 | 48 | 258 | 0.0 | 1.0 | 0.00 | 0.00 | 0.00 | 81 | 1008.5 |
| 20260505090333 | 47 | 260 | 0.0 | 0.0 | 0.00 | 0.00 | 0.00 | 82 | 1008.7 |
| 20260505085830 | 46 | 260 | 0.0 | 0.0 | 0.00 | 0.00 | 0.00 | 84 | 1008.7 |
| 20260505085328 | 46 | 264 | 0.0 | 0.0 | 0.00 | 0.00 | 0.00 | 84 | 1008.8 |
| 20260505084826 | 46 | 267 | 0.0 | 0.0 | 0.00 | 0.00 | 0.00 | 84 | 1008.7 |
| 20260505084324 | 46 | 267 | 0.0 | 0.0 | 0.00 | 0.00 | 0.00 | 85 | 1008.7 |
| 20260505083821 | 46 | 267 | 0.0 | 0.0 | 0.00 | 0.00 | 0.00 | 84 | 1008.9 |
| 20260505083318 | 46 | 268 | 0.0 | 0.0 | 0.00 | 0.00 | 0.00 | 84 | 1008.9 |
| 20260505082815 | 46 | 267 | 0.0 | 0.0 | 0.00 | 0.00 | 0.00 | 83 | 1008.9 |
| 20260505082311 | 46 | 266 | 0.0 | 0.0 | 0.00 | 0.00 | 0.00 | 82 | 1008.9 |
| 20260505081807 | 47 | 251 | 0.0 | 0.0 | 0.00 | 0.00 | 0.00 | 82 | 1008.9 |
| 20260505081304 | 47 | 258 | 0.0 | 0.0 | 0.00 | 0.00 | 0.00 | 82 | 1009.1 |
| 20260505080801 | 47 | 266 | 0.0 | 0.0 | 0.00 | 0.00 | 0.00 | 82 | 1008.9 |
| 20260505080256 | 47 | 266 | 0.0 | 0.0 | 0.00 | 0.00 | 0.00 | 83 | 1009.2 |
| 20260505075752 | 47 | 283 | 0.0 | 0.0 | 0.00 | 0.00 | 0.00 | 82 | 1009.0 |
| 20260505075250 | 47 | 293 | 0.0 | 0.0 | 0.00 | 0.00 | 0.00 | 81 | 1009.2 |
| 20260505074747 | 47 | 274 | 0.0 | 0.0 | 0.00 | 0.00 | 0.00 | 81 | 1009.2 |
| 20260505074244 | 47 | 266 | 0.0 | 0.0 | 0.00 | 0.00 | 0.00 | 80 | 1009.1 |
| 20260505073742 | 48 | 266 | 0.0 | 0.0 | 0.00 | 0.00 | 0.00 | 79 | 1009.2 |
| 20260505073239 | 48 | 264 | 0.0 | 0.0 | 0.00 | 0.00 | 0.00 | 78 | 1009.2 |
| 20260505072736 | 49 | 259 | 0.0 | 1.0 | 0.00 | 0.00 | 0.00 | 77 | 1009.2 |
| 20260505072232 | 49 | 267 | 0.0 | 0.0 | 0.00 | 0.00 | 0.00 | 76 | 1009.0 |
| 20260505071727 | 50 | 267 | 0.0 | 0.0 | 0.00 | 0.00 | 0.00 | 74 | 1009.0 |
| 20260505071225 | 50 | 268 | 0.0 | 0.0 | 0.00 | 0.00 | 0.00 | 73 | 1008.9 |
| 20260505070722 | 51 | 266 | 0.0 | 0.0 | 0.00 | 0.00 | 0.00 | 72 | 1009.0 |
| 20260505070218 | 52 | 264 | 0.0 | 0.0 | 0.00 | 0.00 | 0.00 | 70 | 1009.1 |
| 20260505065714 | 52 | 259 | 0.0 | 0.0 | 0.00 | 0.00 | 0.00 | 69 | 1008.9 |
| 20260505065212 | 53 | 261 | 0.0 | 0.0 | 0.00 | 0.00 | 0.00 | 68 | 1008.9 |
| 20260505064708 | 53 | 243 | 1.0 | 1.0 | 0.00 | 0.00 | 0.00 | 67 | 1009.0 |
| 20260505064206 | 53 | 269 | 0.0 | 0.0 | 0.00 | 0.00 | 0.00 | 67 | 1009.0 |
| 20260505063704 | 54 | 262 | 0.0 | 1.0 | 0.00 | 0.00 | 0.00 | 66 | 1009.0 |
| 20260505063159 | 54 | 246 | 1.0 | 1.0 | 0.00 | 0.00 | 0.00 | 64 | 1008.9 |
| 20260505062655 | 55 | 251 | 1.0 | 1.0 | 0.00 | 0.00 | 0.00 | 63 | 1009.0 |
| 20260505062154 | 55 | 262 | 0.0 | 1.0 | 0.00 | 0.00 | 0.00 | 63 | 1008.9 |
| 20260505061650 | 55 | 257 | 0.0 | 0.0 | 0.00 | 0.00 | 0.00 | 62 | 1009.0 |
| 20260505061149 | 55 | 253 | 1.0 | 2.0 | 0.00 | 0.00 | 0.00 | 62 | 1009.0 |
| 20260505060646 | 55 | 261 | 0.0 | 1.0 | 0.00 | 0.00 | 0.00 | 62 | 1009.1 |
| 20260505060142 | 55 | 265 | 0.0 | 1.0 | 0.00 | 0.00 | 0.00 | 62 | 1008.8 |
| 20260505055637 | 56 | 266 | 0.0 | 0.0 | 0.00 | 0.00 | 0.00 | 61 | 1008.8 |
| 20260505055134 | 57 | 265 | 0.0 | 2.0 | 0.00 | 0.00 | 0.00 | 60 | 1008.8 |
| 20260505054632 | 56 | 241 | 1.0 | 2.0 | 0.00 | 0.00 | 0.00 | 61 | 1008.8 |
| 20260505054130 | 56 | 268 | 0.0 | 0.0 | 0.00 | 0.00 | 0.00 | 61 | 1009.1 |
| 20260505053627 | 57 | 247 | 1.0 | 1.0 | 0.00 | 0.00 | 0.00 | 60 | 1008.9 |
| 20260505053123 | 57 | 254 | 1.0 | 5.0 | 0.00 | 0.00 | 0.00 | 59 | 1009.0 |
| 20260505052620 | 57 | 247 | 1.0 | 1.0 | 0.00 | 0.00 | 0.00 | 60 | 1008.8 |
| 20260505052118 | 57 | 259 | 0.0 | 1.0 | 0.00 | 0.00 | 0.00 | 59 | 1008.7 |
| 20260505051614 | 57 | 265 | 0.0 | 0.0 | 0.00 | 0.00 | 0.00 | 59 | 1008.8 |
| 20260505051113 | 57 | 258 | 0.0 | 3.0 | 0.00 | 0.00 | 0.00 | 58 | 1009.0 |
| 20260505050610 | 58 | 253 | 1.0 | 3.0 | 0.00 | 0.00 | 0.00 | 57 | 1008.8 |
| 20260505050108 | 57 | 268 | 0.0 | 2.0 | 0.00 | 0.00 | 0.00 | 58 | 1008.8 |
| 20260505041538 | 59 | 103 | 1.0 | 3.0 | 0.00 | 0.00 | 0.00 | 56 | 1008.6 |
| 20260505041036 | 59 | 251 | 1.0 | 5.0 | 0.00 | 0.00 | 0.00 | 55 | 1008.4 |
| 20260505040533 | 59 | 261 | 3.0 | 6.0 | 0.00 | 0.00 | 0.00 | 55 | 1008.4 |
| 20260505040030 | 59 | 262 | 0.0 | 1.0 | 0.00 | 0.00 | 0.00 | 55 | 1008.4 |
| 20260505035526 | 60 | 259 | 1.0 | 3.0 | 0.00 | 0.00 | 0.00 | 54 | 1008.2 |
| 20260505035022 | 60 | 257 | 1.0 | 3.0 | 0.00 | 0.00 | 0.00 | 53 | 1008.3 |
| 20260505034519 | 60 | 254 | 0.0 | 2.0 | 0.00 | 0.00 | 0.00 | 54 | 1008.1 |
| 20260505034016 | 60 | 252 | 3.0 | 3.0 | 0.00 | 0.00 | 0.00 | 53 | 1008.3 |
| 20260505033513 | 60 | 254 | 2.0 | 2.0 | 0.00 | 0.00 | 0.00 | 53 | 1008.3 |
| 20260505033011 | 60 | 251 | 2.0 | 2.0 | 0.00 | 0.00 | 0.00 | 53 | 1008.3 |
| 20260505032508 | 59 | 260 | 0.0 | 2.0 | 0.00 | 0.00 | 0.00 | 53 | 1008.3 |
| 20260505032005 | 60 | 265 | 1.0 | 2.0 | 0.00 | 0.00 | 0.00 | 53 | 1008.2 |
| 20260505031502 | 60 | 273 | 0.0 | 3.0 | 0.00 | 0.00 | 0.00 | 53 | 1008.3 |
| 20260505030958 | 60 | 258 | 3.0 | 3.0 | 0.00 | 0.00 | 0.00 | 51 | 1008.1 |
| 20260505030455 | 60 | 250 | 2.0 | 3.0 | 0.00 | 0.00 | 0.00 | 52 | 1008.2 |
| 20260505025950 | 60 | 259 | 2.0 | 5.0 | 0.00 | 0.00 | 0.00 | 50 | 1008.1 |
| 20260505025447 | 60 | 247 | 2.0 | 3.0 | 0.00 | 0.00 | 0.00 | 50 | 1008.2 |
| 20260505024946 | 60 | 243 | 1.0 | 5.0 | 0.00 | 0.00 | 0.00 | 49 | 1008.1 |
| 20260505024443 | 60 | 245 | 2.0 | 2.0 | 0.00 | 0.00 | 0.00 | 49 | 1008.3 |
| 20260505023940 | 60 | 254 | 2.0 | 3.0 | 0.00 | 0.00 | 0.00 | 48 | 1008.2 |
| 20260505023437 | 60 | 251 | 2.0 | 2.0 | 0.00 | 0.00 | 0.00 | 48 | 1007.9 |
| 20260505022934 | 58 | 245 | 2.0 | 2.0 | 0.00 | 0.00 | 0.00 | 50 | 1008.1 |
| 20260505022432 | 56 | 257 | 1.0 | 2.0 | 0.00 | 0.00 | 0.00 | 56 | 1007.9 |
| 20260505021929 | 56 | 267 | 0.0 | 0.0 | 0.00 | 0.00 | 0.00 | 58 | 1007.9 |
| 20260505021425 | 55 | 270 | 0.0 | 0.0 | 0.00 | 0.00 | 0.00 | 59 | 1007.8 |
| 20260505020921 | 55 | 267 | 0.0 | 0.0 | 0.00 | 0.00 | 0.00 | 61 | 1007.9 |
| 20260505020416 | 55 | 269 | 0.0 | 0.0 | 0.00 | 0.00 | 0.00 | 60 | 1007.8 |
| 20260505015914 | 55 | 269 | 0.0 | 0.0 | 0.00 | 0.00 | 0.00 | 61 | 1007.7 |
| 20260505015411 | 55 | 267 | 0.0 | 0.0 | 0.00 | 0.00 | 0.00 | 63 | 1007.8 |
| 20260505014908 | 55 | 269 | 0.0 | 0.0 | 0.00 | 0.00 | 0.00 | 62 | 1007.8 |
| 20260505014405 | 54 | 269 | 0.0 | 0.0 | 0.00 | 0.00 | 0.00 | 62 | 1007.7 |
| 20260505013902 | 54 | 269 | 0.0 | 0.0 | 0.00 | 0.00 | 0.00 | 67 | 1007.6 |
| 20260505013358 | 54 | 270 | 0.0 | 0.0 | 0.00 | 0.00 | 0.00 | 65 | 1007.7 |
| 20260505012857 | 54 | 270 | 0.0 | 0.0 | 0.00 | 0.00 | 0.00 | 67 | 1007.5 |
| 20260505012355 | 54 | 272 | 0.0 | 0.0 | 0.00 | 0.00 | 0.00 | 69 | 1007.7 |
| 20260505011850 | 54 | 284 | 0.0 | 0.0 | 0.00 | 0.00 | 0.00 | 70 | 1007.4 |
| 20260505011347 | 54 | 285 | 0.0 | 0.0 | 0.00 | 0.00 | 0.00 | 70 | 1007.5 |
| 20260505010843 | 54 | 285 | 0.0 | 0.0 | 0.00 | 0.00 | 0.00 | 67 | 1007.4 |
| 20260505010339 | 54 | 285 | 0.0 | 0.0 | 0.00 | 0.00 | 0.00 | 67 | 1007.3 |
| 20260505005836 | 54 | 285 | 0.0 | 0.0 | 0.00 | 0.00 | 0.00 | 70 | 1007.5 |
| 20260505005333 | 54 | 285 | 0.0 | 0.0 | 0.00 | 0.00 | 0.00 | 70 | 1007.2 |
| 20260505004830 | 55 | 285 | 0.0 | 0.0 | 0.00 | 0.00 | 0.00 | 68 | 1007.1 |
| 20260505004326 | 55 | 285 | 0.0 | 0.0 | 0.00 | 0.00 | 0.00 | 66 | 1007.2 |
| 20260505003824 | 55 | 285 | 0.0 | 0.0 | 0.00 | 0.00 | 0.00 | 62 | 1007.1 |
| 20260505003321 | 56 | 285 | 0.0 | 0.0 | 0.00 | 0.00 | 0.00 | 64 | 1006.9 |
| 20260505002817 | 56 | 285 | 0.0 | 0.0 | 0.00 | 0.00 | 0.00 | 60 | 1006.8 |
| 20260505002314 | 57 | 285 | 0.0 | 0.0 | 0.00 | 0.00 | 0.00 | 59 | 1006.6 |
| 20260505001812 | 57 | 284 | 0.0 | 0.0 | 0.00 | 0.00 | 0.00 | 56 | 1006.6 |
| 20260505001309 | 58 | 285 | 0.0 | 0.0 | 0.00 | 0.00 | 0.00 | 55 | 1006.6 |
| 20260505000806 | 59 | 285 | 0.0 | 0.0 | 0.00 | 0.00 | 0.00 | 55 | 1006.7 |
| 20260505000304 | 59 | 284 | 0.0 | 0.0 | 0.00 | 0.00 | 0.00 | 52 | 1006.5 |
| 20260504235800 | 60 | 285 | 0.0 | 0.0 | 0.00 | 0.00 | 0.00 | 51 | 1006.5 |
| 20260504235257 | 61 | 284 | 0.0 | 0.0 | 0.00 | 0.00 | 0.00 | 49 | 1006.5 |
| 20260504234754 | 62 | 284 | 0.0 | 0.0 | 0.00 | 0.00 | 0.00 | 45 | 1006.3 |
| 20260504234252 | 63 | 284 | 0.0 | 0.0 | 0.00 | 0.00 | 0.00 | 46 | 1006.4 |
| 20260504233748 | 64 | 285 | 0.0 | 0.0 | 0.00 | 0.00 | 0.00 | 40 | 1006.3 |
| 20260504233243 | 65 | 285 | 0.0 | 0.0 | 0.00 | 0.00 | 0.00 | 40 | 1006.3 |
| 20260504232740 | 66 | 285 | 0.0 | 0.0 | 0.00 | 0.00 | 0.00 | 40 | 1006.2 |
| 20260504232237 | 67 | 285 | 0.0 | 1.0 | 0.00 | 0.00 | 0.00 | 38 | 1006.2 |
| 20260504231735 | 67 | 285 | 0.0 | 2.0 | 0.00 | 0.00 | 0.00 | 38 | 1006.0 |
| 20260504231231 | 68 | 285 | 0.0 | 0.0 | 0.00 | 0.00 | 0.00 | 37 | 1005.9 |
| 20260504230727 | 68 | 272 | 1.0 | 5.0 | 0.00 | 0.00 | 0.00 | 36 | 1005.7 |
| 20260504230226 | 68 | 277 | 2.0 | 2.0 | 0.00 | 0.00 | 0.00 | 35 | 1005.8 |
| 20260504225724 | 68 | 349 | 3.0 | 5.0 | 0.00 | 0.00 | 0.00 | 34 | 1005.7 |
| 20260504225220 | 69 | 323 | 3.0 | 5.0 | 0.00 | 0.00 | 0.00 | 35 | 1005.6 |
| 20260504224717 | 69 | 306 | 1.0 | 1.0 | 0.00 | 0.00 | 0.00 | 35 | 1005.4 |
| 20260504224214 | 69 | 297 | 0.0 | 2.0 | 0.00 | 0.00 | 0.00 | 35 | 1005.5 |
| 20260504223711 | 69 | 289 | 1.0 | 1.0 | 0.00 | 0.00 | 0.00 | 35 | 1005.6 |
| 20260504223206 | 69 | 275 | 0.0 | 1.0 | 0.00 | 0.00 | 0.00 | 36 | 1005.5 |
| 20260504222703 | 69 | 282 | 1.0 | 6.0 | 0.00 | 0.00 | 0.00 | 34 | 1005.6 |
| 20260504222200 | 69 | 262 | 0.0 | 2.0 | 0.00 | 0.00 | 0.00 | 35 | 1005.5 |
| 20260504221658 | 69 | 308 | 3.0 | 3.0 | 0.00 | 0.00 | 0.00 | 34 | 1005.5 |
| 20260504221155 | 69 | 278 | 1.0 | 7.0 | 0.00 | 0.00 | 0.00 | 33 | 1005.5 |
| 20260504220651 | 70 | 308 | 2.0 | 7.0 | 0.00 | 0.00 | 0.00 | 33 | 1005.5 |
| 20260504220149 | 70 | 271 | 1.0 | 3.0 | 0.00 | 0.00 | 0.00 | 33 | 1005.4 |
| 20260504215645 | 70 | 252 | 1.0 | 3.0 | 0.00 | 0.00 | 0.00 | 33 | 1005.6 |
| 20260504215142 | 69 | 309 | 5.0 | 7.0 | 0.00 | 0.00 | 0.00 | 33 | 1005.5 |
| 20260504214638 | 70 | 326 | 2.0 | 6.0 | 0.00 | 0.00 | 0.00 | 33 | 1005.4 |
| 20260504214134 | 70 | 252 | 2.0 | 5.0 | 0.00 | 0.00 | 0.00 | 33 | 1005.5 |
| 20260504213631 | 69 | 298 | 3.0 | 8.0 | 0.00 | 0.00 | 0.00 | 33 | 1005.5 |
| 20260504213128 | 69 | 279 | 2.0 | 6.0 | 0.00 | 0.00 | 0.00 | 32 | 1005.4 |
| 20260504212624 | 70 | 314 | 3.0 | 7.0 | 0.00 | 0.00 | 0.00 | 32 | 1005.4 |
| 20260504212121 | 70 | 299 | 3.0 | 5.0 | 0.00 | 0.00 | 0.00 | 33 | 1005.6 |
| 20260504211619 | 71 | 301 | 3.0 | 10.0 | 0.00 | 0.00 | 0.00 | 32 | 1005.3 |
| 20260504211115 | 71 | 333 | 5.0 | 7.0 | 0.00 | 0.00 | 0.00 | 32 | 1005.4 |
| 20260504210613 | 71 | 324 | 2.0 | 6.0 | 0.00 | 0.00 | 0.00 | 33 | 1005.2 |
| 20260504210109 | 70 | 267 | 4.0 | 6.0 | 0.00 | 0.00 | 0.00 | 31 | 1005.1 |
| 20260504205607 | 70 | 274 | 3.0 | 5.0 | 0.00 | 0.00 | 0.00 | 32 | 1005.3 |
| 20260504205104 | 70 | 285 | 1.0 | 3.0 | 0.00 | 0.00 | 0.00 | 33 | 1005.3 |
| 20260504204602 | 70 | 288 | 3.0 | 6.0 | 0.00 | 0.00 | 0.00 | 32 | 1005.3 |
| 20260504204101 | 70 | 306 | 3.0 | 6.0 | 0.00 | 0.00 | 0.00 | 33 | 1005.3 |
| 20260504203559 | 69 | 282 | 2.0 | 8.0 | 0.00 | 0.00 | 0.00 | 33 | 1005.3 |
| 20260504203056 | 69 | 278 | 1.0 | 6.0 | 0.00 | 0.00 | 0.00 | 34 | 1005.1 |
| 20260504202551 | 70 | 25 | 3.0 | 8.0 | 0.00 | 0.00 | 0.00 | 33 | 1005.1 |
| 20260504202048 | 71 | 296 | 1.0 | 3.0 | 0.00 | 0.00 | 0.00 | 33 | 1005.4 |
| 20260504201545 | 70 | 277 | 1.0 | 6.0 | 0.00 | 0.00 | 0.00 | 34 | 1005.5 |
| 20260504201043 | 69 | 321 | 4.0 | 6.0 | 0.00 | 0.00 | 0.00 | 35 | 1005.6 |
| 20260504200539 | 69 | 248 | 2.0 | 3.0 | 0.00 | 0.00 | 0.00 | 34 | 1005.6 |
| 20260504200036 | 69 | 284 | 4.0 | 8.0 | 0.00 | 0.00 | 0.00 | 34 | 1005.6 |
| 20260504195532 | 69 | 278 | 2.0 | 7.0 | 0.00 | 0.00 | 0.00 | 34 | 1005.3 |
| 20260504195029 | 69 | 275 | 5.0 | 7.0 | 0.00 | 0.00 | 0.00 | 34 | 1005.4 |
| 20260504194526 | 70 | 311 | 2.0 | 8.0 | 0.00 | 0.00 | 0.00 | 34 | 1005.3 |
| 20260504194021 | 70 | 319 | 6.0 | 9.0 | 0.00 | 0.00 | 0.00 | 34 | 1005.4 |
| 20260504193518 | 70 | 291 | 2.0 | 6.0 | 0.00 | 0.00 | 0.00 | 35 | 1005.5 |
| 20260504193017 | 70 | 307 | 1.0 | 6.0 | 0.00 | 0.00 | 0.00 | 35 | 1005.5 |
| 20260504192515 | 70 | 277 | 2.0 | 3.0 | 0.00 | 0.00 | 0.00 | 35 | 1005.5 |
| 20260504192013 | 70 | 300 | 4.0 | 6.0 | 0.00 | 0.00 | 0.00 | 35 | 1005.5 |
| 20260504191510 | 69 | 286 | 1.0 | 9.0 | 0.00 | 0.00 | 0.00 | 36 | 1005.5 |
| 20260504191006 | 69 | 312 | 5.0 | 6.0 | 0.00 | 0.00 | 0.00 | 37 | 1005.6 |
| 20260504190502 | 69 | 301 | 1.0 | 11.0 | 0.00 | 0.00 | 0.00 | 37 | 1005.6 |
| 20260504185958 | 69 | 268 | 1.0 | 5.0 | 0.00 | 0.00 | 0.00 | 36 | 1005.5 |
| 20260504185455 | 68 | 285 | 4.0 | 8.0 | 0.00 | 0.00 | 0.00 | 37 | 1005.6 |
| 20260504184952 | 67 | 325 | 4.0 | 6.0 | 0.00 | 0.00 | 0.00 | 37 | 1005.7 |
| 20260504184447 | 65 | 290 | 1.0 | 2.0 | 0.00 | 0.00 | 0.00 | 40 | 1005.8 |